Del Norte County Airport

Airport
ICAO code: 
KCEC
Summary
ICAO Region: 
NAM
Territory: 
Location: 
Cresent City, California,
Coordinates: 
Aerial View: 
41° 46' 48" N, 124° 14' 11" W
Airport WX: 
Fog
Metar
Observation
KCEC 030756Z AUTO 17005KT 1/4SM FG VV002 09/09 A3014 RMK AO2 SLP208 T00940094 401170083
Station
Crescent City, Jack McNamara Field Airport
Date/Time
2021-12-03 07:56:00
Wind direction
170°
Wind speed
05 kts
Lowest cloud amount
n/a
Temperature
9.4°C
Dew point
9.4°C
Humidity
100%
Weather condition
fog

Description

Del Norte County Regional Airport, also known as Jack McNamara Field, is a public use airport located 6 km northwest of the central business district of Crescent City, in Del Norte County, California.

Climatology

Crescent City has a Mediterranean climate (Köppen climate classification Csb that is sometimes classified as an oceanic climate due to its high annual rainfall. It is one of the wettest places in California: the annual rainfall is 67 in (1,700 mm). Most of the rain falls in the months from October to March, the wettest month being December with 11 inches (280 mm) of precipitation. The driest month is July with less than 0.5 in (13 mm) of rain.

Runways

Designator Length Width Surface Rops
11/29 1525 46 ASP Yes/Yes
17/35 1525 46 ASP Yes/Yes
Airport map: 
Aerial View: 

SKYbrary Partners:

Safety knowledge contributed by: